Location: Lake Crest
(37.6062°N, 88.9176°W)
Time: 02:52:25
(UTC+00:00)

Meteor 2-9 Rocket - Pass Details

Date: 15 December 2019
Orbit: 791 x 895 km, 81.3° (Epoch: 19 January)

Event Time Altitude Azimuth Distance (km) Brightness Sun altitude
Rises 00:31:03 0° 348° (NNW) 3,511 7.4 -21.7°
Reaches altitude 10° 00:33:32 10° 347° (NNW) 2,561 6.7 -22.1°
Maximum altitude 00:39:21 71° 264° (W) 926 4.5 -23.3°
Drops below altitude 10° 00:45:00 10° 181° (S) 2,492 6.8 -24.4°
Sets 00:47:23 0° 179° (S) 3,409 7.5 -24.8°
